TimeCDT,TemperatureF,Dew PointF,Humidity,Sea Level PressureIn,VisibilityMPH,Wind Direction,Wind SpeedMPH,Gust SpeedMPH,PrecipitationIn,Events,Conditions,WindDirDegrees,DateUTC
12:13 AM,34.7,34.0,97,29.77,0.2,Calm,Calm,-,N/A,Fog,Fog,0,2012-10-14 05:13:00
12:34 AM,34.3,33.8,98,29.76,0.2,Calm,Calm,-,N/A,Fog,Fog,0,2012-10-14 05:34:00
12:53 AM,35.1,34.7,99,29.77,0.2,Calm,Calm,-,N/A,Fog,Fog,0,2012-10-14 05:53:00
1:13 AM,35.6,35.2,99,29.77,0.2,Calm,Calm,-,N/A,Snow,Light Snow,0,2012-10-14 06:13:00
1:34 AM,36.0,35.6,99,29.77,0.2,Calm,Calm,-,N/A,Fog,Fog,0,2012-10-14 06:34:00
1:53 AM,35.8,35.6,99,29.77,0.2,Calm,Calm,-,N/A,Fog,Fog,0,2012-10-14 06:53:00
2:34 AM,36.3,36.0,99,29.78,0.2,Calm,Calm,-,N/A,Fog,Fog,0,2012-10-14 07:34:00
2:53 AM,37.4,37.0,99,29.78,0.2,Calm,Calm,-,N/A,Fog,Fog,0,2012-10-14 07:53:00
3:13 AM,37.9,37.6,99,29.79,0.2,Calm,Calm,-,N/A,Fog,Fog,0,2012-10-14 08:13:00
3:34 AM,38.7,38.5,99,29.78,0.2,Calm,Calm,-,N/A,Fog,Fog,0,2012-10-14 08:34:00
3:53 AM,39.4,39.2,99,29.79,0.2,Calm,Calm,-,N/A,Fog,Fog,0,2012-10-14 08:53:00
4:13 AM,40.1,40.1,100,29.79,0.2,Calm,Calm,-,N/A,Fog,Fog,0,2012-10-14 09:13:00
4:33 AM,40.6,40.5,99,29.78,0.5,Calm,Calm,-,N/A,Fog,Fog,0,2012-10-14 09:33:00
4:53 AM,41.4,41.2,99,29.78,0.8,Calm,Calm,-,N/A,,Overcast,0,2012-10-14 09:53:00
5:14 AM,41.4,41.2,99,29.79,2.0,Calm,Calm,-,N/A,,Overcast,0,2012-10-14 10:14:00
5:33 AM,41.9,41.9,100,29.79,3.0,Calm,Calm,-,N/A,,Overcast,0,2012-10-14 10:33:00
5:53 AM,42.4,42.3,99,29.79,4.0,Calm,Calm,-,N/A,,Overcast,0,2012-10-14 10:53:00
6:14 AM,43.2,43.0,99,29.79,4.0,Calm,Calm,-,N/A,,Overcast,0,2012-10-14 11:14:00
6:34 AM,44.1,43.9,99,29.79,4.0,Calm,Calm,-,N/A,,Overcast,0,2012-10-14 11:34:00
6:53 AM,44.1,43.9,99,29.80,4.0,Calm,Calm,-,N/A,,Overcast,0,2012-10-14 11:53:00
7:13 AM,44.1,43.9,99,29.81,4.0,NNW,3.5,-,N/A,,Overcast,330,2012-10-14 12:13:00
7:34 AM,44.1,43.9,99,29.81,5.0,Calm,Calm,-,N/A,,Overcast,0,2012-10-14 12:34:00
7:53 AM,44.2,44.1,99,29.81,5.0,NNW,6.9,-,N/A,,Overcast,330,2012-10-14 12:53:00
8:14 AM,44.6,44.2,99,29.82,4.0,NNW,6.9,-,N/A,,Overcast,330,2012-10-14 13:14:00
8:33 AM,44.6,44.2,99,29.81,4.0,NNW,5.8,-,N/A,,Mostly Cloudy,330,2012-10-14 13:33:00
8:53 AM,44.6,44.6,100,29.81,4.0,NNW,6.9,-,N/A,,Scattered Clouds,330,2012-10-14 13:53:00
9:14 AM,45.5,45.1,99,29.82,4.0,NNW,9.2,-,N/A,,Mostly Cloudy,330,2012-10-14 14:14:00
9:34 AM,46.4,45.7,97,29.82,4.0,NNW,9.2,-,N/A,,Overcast,340,2012-10-14 14:34:00
9:54 AM,48.6,45.7,90,29.82,5.0,NW,11.5,18.4,N/A,,Overcast,320,2012-10-14 14:54:00
10:14 AM,50.0,45.1,83,29.82,5.0,NNW,9.2,-,N/A,,Haze,340,2012-10-14 15:14:00
10:33 AM,51.3,44.4,77,29.82,7.0,North,13.8,18.4,N/A,,Overcast,350,2012-10-14 15:33:00
10:54 AM,51.4,43.9,75,29.83,7.0,North,13.8,18.4,N/A,,Mostly Cloudy,360,2012-10-14 15:54:00
11:13 AM,51.6,43.7,74,29.83,7.0,NNW,10.4,-,N/A,,Mostly Cloudy,330,2012-10-14 16:13:00
11:34 AM,52.3,43.0,70,29.83,10.0,NNW,13.8,19.6,N/A,,Overcast,340,2012-10-14 16:34:00
11:53 AM,51.4,42.6,72,29.83,7.0,North,11.5,-,N/A,,Overcast,350,2012-10-14 16:53:00
12:13 PM,52.0,42.4,70,29.84,7.0,North,11.5,-,N/A,,Overcast,350,2012-10-14 17:13:00
12:34 PM,52.2,42.4,69,29.84,7.0,NNW,8.1,-,N/A,,Overcast,330,2012-10-14 17:34:00
12:53 PM,52.9,42.3,67,29.84,10.0,North,10.4,-,N/A,,Overcast,350,2012-10-14 17:53:00
1:14 PM,54.7,41.9,62,29.84,10.0,North,8.1,16.1,N/A,,Scattered Clouds,350,2012-10-14 18:14:00
1:33 PM,55.6,41.4,59,29.83,10.0,NNW,9.2,-,N/A,,Scattered Clouds,330,2012-10-14 18:33:00
1:53 PM,56.1,40.5,56,29.83,10.0,NW,8.1,19.6,N/A,,Scattered Clouds,320,2012-10-14 18:53:00
2:13 PM,56.5,39.7,54,29.83,10.0,NW,9.2,18.4,N/A,,Scattered Clouds,310,2012-10-14 19:13:00
2:33 PM,57.2,38.8,50,29.83,10.0,North,10.4,18.4,N/A,,Clear,350,2012-10-14 19:33:00
2:54 PM,57.9,37.2,46,29.82,10.0,NNW,12.7,20.7,N/A,,Scattered Clouds,340,2012-10-14 19:54:00
3:13 PM,58.1,37.6,46,29.82,10.0,NNW,11.5,20.7,N/A,,Scattered Clouds,330,2012-10-14 20:13:00
3:33 PM,57.0,37.0,47,29.82,10.0,North,10.4,18.4,N/A,,Scattered Clouds,350,2012-10-14 20:33:00
3:54 PM,58.6,36.5,44,29.83,10.0,NW,12.7,19.6,N/A,,Mostly Cloudy,320,2012-10-14 20:54:00
4:13 PM,57.6,37.2,47,29.83,10.0,NW,12.7,-,N/A,,Mostly Cloudy,320,2012-10-14 21:13:00
4:34 PM,57.2,36.9,47,29.84,10.0,NNW,10.4,-,N/A,,Mostly Cloudy,330,2012-10-14 21:34:00
4:54 PM,57.9,37.4,46,29.84,10.0,NW,12.7,16.1,N/A,,Mostly Cloudy,310,2012-10-14 21:54:00
5:13 PM,57.2,37.8,48,29.84,10.0,WNW,11.5,17.3,N/A,,Scattered Clouds,300,2012-10-14 22:13:00
5:33 PM,56.5,37.8,50,29.85,10.0,WNW,12.7,-,N/A,,Clear,300,2012-10-14 22:33:00
5:54 PM,55.4,37.6,51,29.86,10.0,WNW,16.1,-,N/A,,Clear,300,2012-10-14 22:54:00
6:14 PM,54.3,37.0,52,29.87,10.0,WNW,11.5,-,N/A,,Clear,300,2012-10-14 23:14:00
6:33 PM,53.1,36.5,53,29.87,10.0,NW,9.2,-,N/A,,Clear,310,2012-10-14 23:33:00
6:54 PM,52.0,35.8,54,29.87,10.0,WNW,5.8,-,N/A,,Scattered Clouds,300,2012-10-14 23:54:00
7:13 PM,50.4,34.7,55,29.87,10.0,NW,6.9,-,N/A,,Clear,310,2012-10-15 00:13:00
7:34 PM,49.5,33.3,54,29.88,10.0,WNW,6.9,-,N/A,,Clear,290,2012-10-15 00:34:00
7:53 PM,48.0,32.7,55,29.89,10.0,WNW,3.5,-,N/A,,Clear,300,2012-10-15 00:53:00
8:14 PM,46.6,32.0,57,29.89,10.0,NW,3.5,-,N/A,,Clear,310,2012-10-15 01:14:00
8:33 PM,45.5,32.0,59,29.89,10.0,WNW,4.6,-,N/A,,Clear,290,2012-10-15 01:33:00
8:54 PM,40.1,30.2,68,29.89,10.0,West,5.8,-,N/A,,Clear,270,2012-10-15 01:54:00
9:13 PM,38.8,30.2,71,29.90,10.0,West,5.8,-,N/A,,Clear,270,2012-10-15 02:13:00
9:33 PM,37.6,30.0,74,29.91,10.0,West,6.9,-,N/A,,Clear,270,2012-10-15 02:33:00
9:54 PM,36.7,30.0,77,29.91,10.0,West,3.5,-,N/A,,Clear,270,2012-10-15 02:54:00
10:13 PM,37.4,31.1,78,29.91,10.0,Calm,Calm,-,N/A,,Clear,0,2012-10-15 03:13:00
10:33 PM,37.6,31.5,79,29.91,10.0,West,3.5,-,N/A,,Clear,260,2012-10-15 03:33:00
10:54 PM,37.6,31.5,79,29.91,10.0,WSW,5.8,-,N/A,,Clear,250,2012-10-15 03:54:00
11:13 PM,37.0,31.6,81,29.91,10.0,West,3.5,-,N/A,,Clear,260,2012-10-15 04:13:00
11:33 PM,35.6,30.9,83,29.92,10.0,West,4.6,-,N/A,,Clear,260,2012-10-15 04:33:00
11:54 PM,36.5,31.8,83,29.92,10.0,West,4.6,-,N/A,,Clear,260,2012-10-15 04:54:00